Location: Cabeza Gorda
(40.0667°N, 4.9667°W)
Time: 04:36:27
(UTC+00:00)

Atlas Centaur 2 - Pass Details

Date: 15 January 2026
Orbit: 456 x 1249 km, 30.4° (Epoch: 15 February)

Event Time Altitude Azimuth Distance (km) Brightness Sun altitude
Exits shadow 05:58:12 10° 221° (SW) 2,381 4.3 -19.2°
Reaches altitude 10° 05:58:15 10° 221° (SW) 2,371 4.3 -19.1°
Maximum altitude 06:03:04 28° 163° (SSE) 1,648 4.0 -18.2°
Drops below altitude 10° 06:08:47 10° 108° (ESE) 2,855 6.3 -17.2°
Sets 06:12:10 0° 98° (E) 3,935 7.4 -16.6°
